Back to catalog

COSMOS 830

AliveMilitaryLEO
NORAD 8894·PAYLOAD·🇷🇺 Russia

Launched Jun 15, 1976 from Plesetsk Cosmodrome

Loading…

Next Passes (next 24 hours)

TLE

FreshSource: Space-Track

Epoch: Sep 13, 2026, 15:29 UTC

1 08894U 76054F   26256.64554738  .00000004  00000-0  13871-3 0  9991
2 08894  74.0044 337.0607 0015746 191.8681 342.9236 12.46261449285893

Track COSMOS 830 in real time with AllMySat

Download on the App Store